Terug naar catalogus

FENGYUN 1C DEB

ActiefSSO
NORAD 35135·DEBRIS·🇨🇳 China

Gelanceerd May 10, 1999 vanaf Taiyuan Satellite Launch Center

Loading…

Volgende Passages (komende 24 uur)

TLE

VersSource: Space-Track

Epoch: Sep 14, 2026, 11:35 UTC

1 35135U 99025DLP 26257.48266787  .00000537  00000-0  24870-3 0  9991
2 35135  98.5637 263.6991 0080806 201.7769 157.9968 14.23049102917454

Volg FENGYUN 1C DEB in realtime met AllMySat

Download on the App Store